Temperature
20 19 18 20 20 19 19 18 18 19 20 19 18 18 19 20 21 21 21 21 20 20 20 20 19 18 17 15 14 13 12 12 11 11 10 10 11 10 10 9 9 9 9 9
20 19 20 20 19 19 18 18 18 19 20 19 17 18 19 20 21 21 20 20 19 19 18 18 18 18 16 15 14 13 12 12 11 12 12 12 11 11 10 9 9 9 9 9
19 20 20 19 19 19 19 18 18 18 17 18 18 17 21 21 22 21 20 19 18 18 17 17 17 17 16 15 14 13 12 12 11 11 10 9 9 8 9 9 10 10 9 9
20 20 19 18 18 19 18 18 17 17 16 16 18 16 19 21 20 19 19 19 18 18 17 17 16 16 15 15 14 13 12 11 11 10 10 10 10 11 12 11 11 10 9 9
19 20 19 18 19 18 18 17 16 16 15 15 17 16 18 20 20 19 18 19 18 17 17 16 16 15 15 14 14 13 12 11 10 9 9 9 9 10 10 9 9 8 8 8
19 19 18 18 18 17 17 16 16 16 15 15 18 18 17 20 20 19 19 19 18 17 16 16 15 15 15 14 14 13 12 11 10 9 9 8 8 8 8 7 7 7 7 7
20 18 18 17 17 17 16 16 16 16 14 16 18 18 17 20 20 19 18 18 17 16 15 15 15 14 14 14 13 13 12 11 10 9 9 8 8 7 7 7 7 6 6 7
19 19 17 17 18 17 18 17 16 16 16 17 18 16 18 21 21 20 19 18 16 15 15 14 14 13 13 13 13 13 12 12 11 10 9 9 8 7 7 7 6 6 6 6
19 19 17 17 17 17 18 17 17 16 16 15 17 19 20 21 20 19 19 17 16 15 14 14 13 13 13 13 12 12 12 12 11 11 10 9 8 8 7 7 6 6 6 5
18 18 18 15 15 15 16 16 16 15 15 15 17 18 18 20 19 18 17 16 15 14 14 13 13 13 13 12 12 12 12 12 11 11 11 10 10 9 8 7 7 7 6 6
18 17 17 16 15 16 14 15 15 15 15 14 14 16 19 19 19 17 16 16 15 14 13 13 13 12 12 12 12 12 12 12 11 11 11 11 10 10 9 8 8 7 7 6
18 16 16 17 17 17 17 17 16 14 15 15 14 15 20 19 18 17 16 15 14 14 13 13 12 12 12 12 11 11 11 11 11 10 10 10 10 9 9 9 8 8 7 7
17 15 15 16 15 15 16 16 16 15 14 13 13 14 19 18 18 16 15 15 14 13 13 12 12 11 11 11 11 11 10 10 10 10 9 9 9 9 9 8 8 8 7 7
15 15 14 15 15 16 15 16 16 14 13 13 13 15 16 17 15 15 15 14 14 13 13 12 11 11 10 10 10 10 10 9 9 9 8 8 8 8 8 7 7 7 7 6
14 13 14 15 15 15 15 15 15 14 14 13 14 14 15 15 14 14 14 13 13 13 12 11 11 10 10 9 9 9 8 8 8 8 7 7 7 7 7 6 6 6 6 6
13 13 13 13 14 14 14 14 14 14 14 14 14 14 15 14 14 13 12 12 12 12 11 11 10 9 9 8 8 8 7 7 7 7 7 7 6 6 6 6 5 5 5 5
13 12 12 11 13 12 12 14 14 14 15 14 13 14 14 12 12 12 12 12 11 11 10 9 9 8 8 7 7 7 6 6 6 6 6 6 5 5 5 5 5 4 4 4
12 12 11 10 11 9 12 15 15 14 14 14 13 13 12 12 12 12 12 11 10 9 9 8 8 7 7 7 6 6 6 6 5 5 5 5 4 4 4 4 4 3 3 3
11 11 10 9 9 10 13 14 14 13 13 13 12 12 12 12 11 11 11 10 9 8 8 7 7 7 6 6 6 5 5 5 4 4 4 4 3 3 3 3 2 2 2 2
9 10 9 9 8 8 13 12 13 12 11 11 11 11 11 10 7 8 9 8 8 7 7 7 6 6 5 5 5 4 4 4 3 3 3 3 2 2 2 1 1 1 0 0
8 8 8 8 8 9 13 11 12 11 10 11 11 10 10 8 7 8 8 7 7 6 6 6 5 5 5 4 4 3 3 3 3 2 2 2 1 1 0 0 0 -0 -0 -0
9 8 8 8 8 9 12 12 11 11 11 11 10 9 8 8 7 7 6 6 6 5 5 5 4 4 4 4 3 3 3 2 2 1 1 1 0 -0 -1 -1 -1 -1 -1 -1
11 11 11 10 10 13 13 12 12 11 10 9 8 8 7 7 6 6 5 5 5 4 4 4 4 3 3 3 2 2 2 1 1 0 -0 -0 -1 -1 -1 -2 -2 -2 -2 -2
11 12 10 10 11 12 12 12 10 9 8 8 7 7 6 6 5 5 4 4 4 4 3 3 3 3 2 2 2 1 1 0 -0 -1 -1 -1 -2 -2 -2 -2 -2 -2 -2 -2
10 10 9 9 9 11 11 9 8 7 7 6 6 5 5 5 4 4 3 3 3 3 3 2 2 2 1 1 1 0 -0 -1 -1 -2 -2 -2 -2 -3 -3 -3 -3 -3 -3 -3
8 8 8 8 9 8 8 7 7 6 6 5 5 4 4 4 3 3 3 3 3 2 2 2 1 1 0 0 -0 -1 -1 -2 -2 -2 -2 -3 -3 -3 -3 -4 -3 -3 -3 -3
Wind_Speed
6 5 7 6 4 7 8 9 13 13 6 4 10 16 19 15 6 6 7 8 8 7 7 2 8 13 13 13 13 15 16 16 14 12 13 14 14 11 9 12 19 22 23 25
6 8 6 4 4 5 8 11 12 11 5 8 12 15 17 6 4 5 6 8 9 9 9 8 4 7 10 12 12 13 14 16 15 13 12 9 9 8 9 7 14 22 23 24
10 5 2 3 7 9 10 10 9 9 10 9 8 10 2 7 8 8 9 9 8 9 9 8 5 4 7 9 12 12 13 15 15 13 7 7 7 7 9 11 12 15 22 24
7 1 2 3 8 8 8 3 6 8 8 6 6 6 6 5 9 9 9 9 8 8 8 6 5 1 3 7 8 11 11 12 13 13 11 12 13 16 15 11 10 11 18 20
6 3 3 6 4 4 5 5 7 7 7 6 6 5 8 4 7 8 9 8 8 8 8 7 4 2 2 4 6 8 9 10 11 13 14 13 15 13 9 9 11 13 13 17
10 2 1 2 2 2 6 8 10 5 3 5 5 5 7 1 6 8 8 8 8 8 9 8 6 4 1 2 4 5 7 8 9 12 13 14 16 13 11 12 12 12 11 13
7 8 5 1 4 6 5 5 4 2 4 4 3 3 8 3 6 8 8 8 8 9 8 8 9 7 5 1 3 5 7 8 9 10 12 14 15 14 15 13 12 11 11 12
5 4 8 6 2 3 4 3 4 4 5 5 4 6 6 1 3 6 8 8 8 9 8 8 8 8 6 5 2 3 6 8 9 10 11 12 12 11 12 13 12 12 12 12
4 2 4 3 2 2 4 2 2 3 7 6 6 6 6 3 3 6 7 8 8 8 8 7 7 6 6 5 3 2 4 6 8 9 10 10 11 12 13 12 12 11 11 10
5 6 3 5 2 4 4 6 3 3 4 5 7 7 2 2 5 6 7 7 7 7 7 6 5 5 4 3 2 1 2 4 6 8 9 9 10 11 11 11 13 13 12 11
3 5 2 5 7 8 6 4 5 5 6 4 5 6 4 6 4 6 7 7 7 6 5 4 5 5 5 4 3 2 3 4 5 6 7 8 9 10 10 11 12 12 12 12
1 3 6 8 1 3 2 4 5 5 7 6 7 8 6 2 6 6 6 6 5 4 3 4 5 7 6 7 6 5 4 4 5 5 6 7 8 8 9 11 11 11 12 12
1 3 5 4 3 2 2 4 6 6 5 6 7 9 5 8 9 7 6 6 4 3 3 4 5 7 8 8 8 7 6 5 5 5 6 7 8 8 10 10 10 10 11 12
2 4 6 8 10 7 8 8 8 8 8 10 13 17 15 14 9 7 7 6 6 5 4 5 5 7 8 9 9 8 8 7 7 6 6 8 9 9 9 9 9 10 10 12
3 5 9 13 13 13 15 15 13 14 14 16 19 20 18 9 5 7 8 9 8 8 6 6 7 8 9 9 9 9 9 9 8 8 8 9 9 8 9 9 9 10 10 12
4 5 8 11 12 14 18 19 17 17 16 17 18 17 8 4 6 7 9 10 10 9 8 8 9 10 9 9 9 9 9 9 9 9 9 10 9 9 9 10 10 10 11 11
5 5 4 5 7 11 12 12 11 8 7 8 10 7 5 6 7 7 9 10 9 9 10 11 10 9 9 9 9 10 9 9 10 10 10 10 10 10 10 10 10 11 11 11
6 5 4 5 6 9 9 4 1 3 6 7 7 5 6 6 6 7 9 8 10 11 11 10 9 9 9 9 9 9 10 10 11 11 11 11 10 10 10 10 11 11 10 11
4 6 5 3 5 10 10 5 3 2 5 5 5 6 8 8 8 7 7 10 10 10 10 9 8 8 9 10 10 10 11 11 12 12 11 10 10 10 11 11 12 11 11 11
1 4 5 5 5 7 6 3 4 3 3 7 8 8 9 10 9 7 9 11 11 10 9 9 8 8 9 10 10 11 12 12 12 12 11 11 11 11 12 13 12 11 10 11
4 4 7 7 6 8 4 4 1 2 2 5 7 7 8 7 7 10 11 11 10 10 10 9 9 9 9 10 11 12 12 12 12 11 11 12 11 12 13 12 11 11 10 10
7 7 7 6 7 8 3 2 1 4 6 7 8 8 8 9 10 11 11 11 11 10 9 9 9 10 10 10 11 13 13 12 12 12 12 12 12 12 11 12 12 11 11 11
7 6 4 6 7 3 2 3 4 6 7 8 8 9 9 10 11 11 10 10 10 10 9 9 10 11 11 10 10 14 14 13 12 12 13 12 12 11 11 12 13 12 10 10
5 5 5 6 6 8 9 8 8 8 8 9 9 9 9 10 10 10 10 10 10 9 9 9 11 12 13 12 11 12 14 13 13 13 13 11 12 12 12 10 10 10 10 10
6 5 5 9 10 10 6 7 10 10 10 10 10 9 8 9 10 9 9 10 9 9 9 10 11 13 15 14 13 13 13 13 13 13 12 11 11 12 12 11 10 12 10 13
6 8 8 9 7 7 9 9 10 10 9 9 9 9 8 7 9 9 9 9 9 11 11 12 13 14 15 15 15 14 12 12 12 12 11 10 10 11 11 12 13 16 18 23
Wind_Direction
218 235 256 284 345 340 328 304 296 293 316 330 281 287 296 301 321 8 17 18 14 2 346 341 179 177 173 177 181 182 186 189 190 195 199 203 209 208 206 203 202 200 200 200
255 247 268 359 8 311 286 284 286 294 352 320 283 288 286 269 104 77 57 50 38 22 17 23 75 147 167 176 183 185 188 190 195 201 203 204 203 209 212 207 207 204 202 202
260 257 94 337 297 279 274 279 302 324 328 280 276 300 271 123 112 98 78 67 56 43 35 27 43 128 168 184 189 194 192 193 195 194 189 194 199 207 213 213 213 209 206 205
273 259 72 280 273 278 286 357 338 319 321 307 328 304 286 160 118 101 87 70 58 47 48 41 29 36 198 203 195 195 194 194 193 191 197 199 207 216 218 215 213 210 211 210
271 140 211 266 301 351 298 339 284 282 288 285 250 234 278 208 128 110 96 79 64 50 44 37 29 351 255 204 194 195 198 201 195 198 203 210 221 226 225 217 216 215 215 215
250 188 192 307 30 241 298 291 260 226 265 263 217 205 283 334 105 103 90 76 56 46 40 30 22 14 342 182 184 191 204 214 206 204 208 214 223 226 226 224 224 222 220 219
239 190 159 159 264 196 238 297 315 231 220 230 115 237 255 305 88 103 98 80 62 49 38 24 16 9 5 354 199 198 210 224 220 215 217 221 224 226 230 231 230 228 227 224
283 194 163 185 261 343 300 313 311 303 298 319 282 240 254 337 95 124 120 102 76 58 44 32 22 15 9 7 341 216 219 226 225 224 226 226 225 227 234 234 233 234 234 230
311 55 109 112 77 274 285 232 57 323 286 268 251 242 250 233 132 108 95 79 74 64 50 35 24 19 12 13 4 316 248 233 228 227 229 230 229 230 233 232 234 240 241 235
320 304 179 142 181 220 283 326 307 249 274 285 279 275 272 41 12 50 54 66 69 63 45 29 17 7 359 357 338 319 279 257 241 230 228 232 231 232 233 232 235 238 239 237
285 276 244 176 204 196 177 205 224 256 272 276 289 274 346 345 39 48 49 64 73 61 36 12 359 349 343 344 332 305 274 261 256 245 239 238 237 235 234 236 238 237 237 235
229 295 278 259 69 88 146 241 242 249 263 268 284 278 302 40 68 67 60 62 75 72 31 357 355 346 343 339 329 317 296 275 261 251 251 252 251 245 242 244 244 240 239 236
65 259 284 265 85 57 207 231 239 259 278 265 264 268 301 346 358 46 60 41 29 32 12 353 352 340 334 329 322 319 317 309 289 269 263 265 262 257 252 251 250 245 244 242
3 256 247 266 291 313 288 268 249 244 255 260 252 271 294 313 338 19 30 19 4 345 340 341 337 328 324 319 318 321 325 320 309 291 276 271 267 263 261 260 256 251 247 245
230 257 263 272 285 292 288 281 271 262 261 266 274 280 292 314 15 20 8 356 342 321 317 329 329 323 318 318 320 324 320 314 310 303 292 280 273 271 272 271 268 263 257 253
214 269 284 278 279 282 279 272 266 263 260 261 271 279 296 43 34 10 354 335 317 314 325 334 329 322 320 321 321 320 313 310 311 305 295 288 282 275 271 269 269 267 263 258
206 223 281 280 303 306 277 266 255 240 244 260 272 290 0 15 16 354 328 311 318 337 340 330 323 324 324 321 318 313 310 314 312 304 297 292 285 279 275 272 271 267 265 261
246 261 269 287 308 254 253 297 318 300 298 302 300 333 24 20 352 322 310 337 351 340 330 324 324 324 320 317 314 311 314 311 304 298 294 291 289 285 282 278 275 272 267 262
244 221 232 247 265 277 278 296 345 328 293 318 342 12 3 347 333 315 343 359 339 327 322 320 321 318 316 311 309 311 308 303 300 297 295 296 296 293 290 284 280 276 272 267
318 214 216 221 236 252 281 71 49 16 290 29 23 360 345 346 325 310 341 335 326 323 320 318 315 312 309 306 310 309 304 301 300 301 303 304 302 297 293 289 286 283 277 274
163 191 217 232 243 259 283 134 85 258 296 4 351 341 340 324 298 310 325 323 318 312 310 312 312 310 304 307 310 304 301 299 300 304 305 302 298 294 293 293 290 288 284 280
178 191 202 201 220 251 135 119 277 301 341 346 349 348 333 318 314 317 317 316 315 313 313 315 312 305 302 304 304 301 300 300 303 303 301 299 297 297 298 294 293 289 286 283
214 222 222 211 223 280 69 331 330 0 353 352 346 337 329 318 314 315 315 314 313 310 309 309 305 302 300 300 301 302 303 304 304 302 299 298 297 296 294 294 294 293 289 285
242 241 256 281 286 315 325 336 360 4 354 344 337 330 323 313 314 315 313 310 307 303 305 307 306 303 302 303 302 299 303 304 301 299 299 298 298 298 295 292 289 289 287 286
283 314 287 276 287 299 315 356 354 349 344 336 329 323 319 316 312 309 305 303 302 303 303 303 302 302 303 305 304 302 301 300 298 296 297 297 295 295 296 292 289 289 279 279
245 255 262 274 308 318 322 341 345 338 333 330 326 320 317 309 302 301 298 298 301 304 305 306 304 303 304 305 302 300 298 298 299 301 299 297 296 295 294 295 295 287 285 291
Height
1525 1528 1527 1521 1519 1520 1521 1523 1522 1513 1504 1505 1504 1497 1487 1482 1481 1480 1479 1478 1478 1477 1476 1475 1475 1477 1480 1483 1485 1487 1488 1489 1492 1493 1494 1495 1496 1498 1500 1501 1503 1504 1506 1508
1525 1525 1519 1517 1518 1520 1522 1523 1519 1509 1502 1505 1501 1494 1483 1478 1479 1480 1480 1480 1479 1478 1476 1475 1475 1477 1478 1479 1481 1482 1483 1484 1485 1486 1488 1489 1491 1492 1494 1495 1496 1497 1498 1499
1523 1518 1517 1518 1520 1520 1519 1519 1516 1514 1509 1501 1501 1497 1481 1477 1477 1479 1481 1481 1481 1480 1479 1477 1477 1477 1477 1477 1477 1478 1478 1479 1479 1481 1484 1485 1486 1486 1486 1486 1486 1488 1489 1490
1517 1514 1516 1518 1519 1517 1520 1513 1515 1515 1519 1515 1506 1516 1490 1478 1478 1479 1481 1482 1482 1481 1480 1479 1478 1477 1476 1475 1474 1474 1475 1475 1475 1476 1477 1477 1476 1474 1474 1477 1479 1481 1482 1482
1516 1513 1516 1518 1516 1516 1514 1512 1514 1515 1519 1519 1507 1512 1496 1477 1480 1480 1481 1482 1482 1482 1481 1479 1478 1476 1474 1473 1472 1471 1471 1471 1472 1472 1471 1471 1470 1469 1471 1472 1472 1472 1473 1473
1512 1512 1514 1514 1515 1515 1514 1513 1510 1513 1518 1522 1501 1505 1499 1480 1478 1479 1480 1482 1482 1482 1481 1479 1477 1475 1473 1471 1469 1468 1467 1467 1467 1467 1467 1466 1465 1465 1466 1465 1465 1465 1464 1464
1506 1510 1512 1514 1515 1514 1516 1519 1520 1521 1527 1516 1497 1501 1496 1476 1474 1476 1479 1481 1481 1481 1480 1478 1477 1475 1472 1470 1467 1466 1464 1464 1464 1463 1462 1461 1461 1461 1460 1459 1459 1459 1458 1456
1512 1513 1512 1512 1513 1516 1512 1516 1527 1531 1522 1511 1497 1502 1487 1472 1472 1474 1477 1479 1479 1479 1479 1478 1477 1475 1472 1470 1467 1464 1462 1461 1460 1459 1457 1457 1456 1454 1453 1452 1452 1451 1450 1449
1511 1511 1510 1509 1510 1513 1512 1512 1513 1522 1519 1519 1503 1486 1475 1469 1471 1473 1475 1477 1478 1478 1478 1477 1476 1474 1472 1470 1467 1464 1461 1459 1457 1455 1453 1451 1450 1448 1446 1445 1445 1443 1443 1442
1510 1515 1507 1511 1512 1513 1514 1514 1517 1522 1525 1523 1502 1492 1486 1475 1474 1474 1475 1476 1477 1477 1477 1477 1476 1474 1472 1469 1466 1463 1460 1458 1455 1452 1449 1447 1444 1442 1440 1438 1436 1434 1433 1434
1510 1515 1511 1512 1511 1508 1516 1516 1515 1516 1514 1522 1519 1502 1473 1472 1472 1474 1475 1476 1476 1477 1476 1476 1475 1473 1471 1469 1466 1462 1459 1456 1452 1449 1446 1442 1439 1436 1434 1431 1428 1426 1424 1423
1509 1513 1514 1504 1499 1499 1502 1505 1509 1520 1516 1509 1513 1500 1471 1469 1471 1473 1475 1476 1476 1475 1475 1474 1473 1472 1469 1467 1464 1460 1457 1453 1449 1445 1442 1438 1435 1432 1428 1425 1422 1419 1416 1414
1510 1515 1519 1508 1511 1507 1505 1503 1504 1507 1512 1513 1515 1500 1471 1469 1471 1473 1474 1474 1474 1474 1473 1472 1471 1469 1467 1464 1461 1457 1454 1450 1446 1441 1437 1433 1430 1426 1422 1419 1415 1412 1409 1406
1511 1513 1517 1517 1508 1504 1504 1502 1501 1506 1510 1507 1500 1487 1477 1474 1473 1473 1473 1473 1473 1473 1471 1470 1468 1466 1463 1460 1457 1453 1449 1445 1441 1437 1432 1428 1424 1420 1415 1411 1408 1404 1401 1397
1511 1514 1510 1506 1501 1500 1499 1498 1497 1498 1497 1498 1487 1483 1476 1474 1474 1473 1473 1472 1471 1470 1468 1466 1464 1462 1459 1456 1452 1448 1444 1440 1436 1431 1427 1422 1418 1413 1409 1404 1400 1396 1392 1388
1510 1512 1509 1506 1501 1498 1495 1489 1488 1488 1486 1484 1481 1478 1472 1472 1472 1472 1472 1471 1470 1467 1465 1463 1460 1458 1454 1451 1447 1443 1438 1434 1430 1426 1421 1416 1411 1406 1401 1397 1392 1387 1383 1379
1507 1510 1511 1511 1502 1500 1496 1480 1477 1477 1475 1477 1479 1475 1471 1472 1472 1472 1472 1470 1467 1465 1462 1460 1457 1454 1450 1446 1442 1438 1433 1429 1425 1420 1414 1409 1404 1399 1394 1389 1383 1378 1374 1370
1505 1507 1511 1512 1509 1513 1488 1472 1471 1473 1473 1473 1472 1471 1471 1472 1472 1472 1470 1468 1465 1463 1460 1456 1453 1449 1445 1442 1438 1433 1428 1423 1418 1413 1408 1403 1397 1391 1386 1380 1375 1370 1365 1361
1500 1505 1510 1513 1511 1499 1481 1473 1472 1474 1474 1472 1471 1471 1471 1470 1469 1469 1468 1465 1463 1460 1456 1453 1449 1445 1441 1437 1433 1428 1422 1417 1412 1407 1401 1396 1390 1384 1378 1372 1366 1361 1357 1352
1501 1502 1509 1509 1510 1506 1481 1476 1473 1476 1478 1474 1472 1472 1471 1469 1471 1468 1466 1463 1460 1456 1452 1448 1444 1440 1436 1432 1427 1422 1416 1411 1406 1400 1394 1388 1383 1376 1370 1364 1359 1354 1349 1344
1502 1505 1507 1507 1505 1491 1475 1475 1474 1482 1480 1474 1472 1471 1471 1470 1469 1464 1461 1458 1455 1452 1448 1443 1439 1435 1431 1427 1422 1416 1410 1405 1399 1393 1386 1380 1374 1369 1362 1357 1351 1346 1341 1336
1493 1498 1499 1498 1501 1493 1474 1474 1477 1477 1472 1471 1469 1469 1467 1465 1463 1460 1457 1453 1450 1446 1442 1439 1434 1430 1426 1421 1416 1409 1403 1398 1392 1385 1378 1372 1366 1361 1355 1349 1344 1339 1334 1329
1482 1481 1480 1481 1481 1472 1471 1472 1472 1471 1470 1469 1468 1466 1464 1461 1458 1455 1452 1448 1445 1441 1438 1434 1429 1424 1419 1415 1410 1403 1396 1390 1383 1376 1370 1364 1358 1353 1348 1342 1336 1331 1327 1322
1475 1474 1476 1476 1470 1469 1470 1470 1470 1469 1468 1466 1465 1463 1460 1457 1454 1451 1447 1444 1440 1437 1433 1428 1423 1418 1412 1407 1403 1397 1389 1383 1376 1369 1363 1357 1351 1345 1340 1335 1330 1325 1320 1315
1476 1474 1474 1473 1470 1469 1468 1468 1467 1466 1464 1462 1461 1459 1456 1453 1450 1447 1443 1440 1436 1432 1428 1423 1418 1412 1405 1399 1394 1388 1382 1376 1368 1362 1355 1349 1344 1338 1332 1327 1323 1318 1313 1310
1474 1475 1475 1472 1470 1470 1468 1467 1465 1463 1461 1460 1457 1454 1452 1449 1446 1443 1439 1435 1432 1427 1422 1417 1411 1405 1398 1392 1385 1379 1374 1369 1361 1354 1348 1342 1336 1330 1325 1319 1313 1309 1306 1301